TimeMST,TemperatureF,Dew PointF,Humidity,Sea Level PressureIn,VisibilityMPH,Wind Direction,Wind SpeedMPH,Gust SpeedMPH,PrecipitationIn,Events,Conditions,WindDirDegrees,DateUTC
12:56 AM,72.0,64.0,76,29.88,10.0,Calm,Calm,-,N/A,,Overcast,0,2013-08-13 07:56:00
1:56 AM,73.0,62.1,68,29.87,10.0,ESE,9.2,-,N/A,,Clear,110,2013-08-13 08:56:00
2:56 AM,73.0,62.1,68,29.87,10.0,East,5.8,-,N/A,,Clear,90,2013-08-13 09:56:00
3:56 AM,69.1,64.0,84,29.88,10.0,Calm,Calm,-,N/A,,Clear,0,2013-08-13 10:56:00
4:56 AM,66.9,64.0,90,29.91,10.0,NNE,5.8,-,N/A,,Clear,30,2013-08-13 11:56:00
5:56 AM,68.0,63.0,84,29.94,10.0,NE,5.8,-,N/A,,Clear,40,2013-08-13 12:56:00
6:56 AM,72.0,64.9,78,29.95,10.0,WSW,3.5,-,N/A,,Clear,240,2013-08-13 13:56:00
7:56 AM,75.9,64.0,67,29.95,10.0,Calm,Calm,-,N/A,,Clear,0,2013-08-13 14:56:00
8:56 AM,79.0,61.0,54,29.96,10.0,South,5.8,-,N/A,,Clear,170,2013-08-13 15:56:00
9:56 AM,82.0,61.0,49,29.95,10.0,Variable,3.5,-,N/A,,Clear,0,2013-08-13 16:56:00
10:56 AM,84.0,60.1,44,29.94,10.0,WSW,4.6,-,N/A,,Clear,240,2013-08-13 17:56:00
11:56 AM,87.1,60.1,40,29.92,10.0,Variable,4.6,-,N/A,,Clear,0,2013-08-13 18:56:00
12:56 PM,88.0,60.1,39,29.90,10.0,WSW,4.6,-,N/A,,Clear,250,2013-08-13 19:56:00
1:56 PM,90.0,61.0,38,29.86,10.0,WNW,5.8,-,N/A,,Clear,290,2013-08-13 20:56:00
2:56 PM,91.0,61.0,36,29.83,10.0,West,4.6,-,N/A,,Clear,270,2013-08-13 21:56:00
3:33 PM,91.4,60.8,36,30.05,10.0,Calm,Calm,-,N/A,Thunderstorm,Clear,0,2013-08-13 22:33:00
3:56 PM,93.0,60.1,33,29.82,10.0,North,3.5,-,N/A,Thunderstorm,Thunderstorm,350,2013-08-13 22:56:00
4:37 PM,91.4,60.8,36,30.06,10.0,ESE,16.1,-,N/A,Thunderstorm,Clear,120,2013-08-13 23:37:00
4:47 PM,86.0,62.6,45,30.07,10.0,SE,23.0,28.8,N/A,Thunderstorm,Thunderstorm,130,2013-08-13 23:47:00
4:56 PM,86.0,61.0,43,29.86,10.0,SE,16.1,-,N/A,Thunderstorm,Clear,140,2013-08-13 23:56:00
5:35 PM,87.8,59.0,38,30.04,10.0,ESE,5.8,-,N/A,,Clear,110,2013-08-14 00:35:00
5:56 PM,88.0,59.0,37,29.82,10.0,ENE,5.8,-,N/A,,Clear,60,2013-08-14 00:56:00
6:56 PM,84.0,64.9,53,29.83,10.0,ESE,6.9,-,N/A,,Clear,120,2013-08-14 01:56:00
7:56 PM,78.1,66.9,68,29.85,10.0,NNW,6.9,-,N/A,,Clear,330,2013-08-14 02:56:00
8:56 PM,78.1,66.9,68,29.86,10.0,ENE,4.6,-,N/A,,Clear,60,2013-08-14 03:56:00
9:56 PM,77.0,66.0,69,29.86,10.0,NNE,6.9,-,N/A,,Clear,20,2013-08-14 04:56:00
10:56 PM,77.0,66.0,69,29.86,10.0,Calm,Calm,-,N/A,,Clear,0,2013-08-14 05:56:00
11:56 PM,72.0,68.0,87,29.86,10.0,South,5.8,-,N/A,,Clear,190,2013-08-14 06:56:00